User: anonymous   Login
Location: Unspecified
(0.0000°N, 0.0000°E)
Time: 17:48:44
(UTC+00:00)
Language:

GONETS M 09 (M19) - Orbit

View from above orbital plane
View from above orbital plane
View from above satellite
View from above satellite

Ground track
Ground track

The orbit data is extracted from the following two-line orbital elements,

1 40062U 14036B   18049.72885771 +.00000034 +00000-0 +17691-3 0  9997
2 40062 082.5108 035.9925 0021120 309.3365 050.5838 12.42889566164748
Epoch (UTC): 18 February 2018 17:29:33
Eccentricity: 0.0021120
inclination: 82.5108°
perigee height: 1478 km
apogee height: 1511 km
right ascension of ascending node: 35.9925°
argument of perigee: 309.3365°
revolutions per day: 12.42889566
mean anomaly at epoch: 50.5838°
orbit number at epoch: 16474

The dashed part of the orbit path shows where the satellite is in the earth's shadow,  

DLR